Location: Casteau
(50.5142°N, 4.0161°E)
Time: 20:28:00
(UTC+00:00)

Transit 2A - Pass Details

Date: 05 August 2021
Orbit: 594 x 964 km, 66.7° (Epoch: 27 September)

Event Time Altitude Azimuth Distance (km) Brightness Sun altitude
Rises 13:19:44 0° 322° (NW) 3,216 9.1 51.8°
Reaches altitude 10° 13:22:01 10° 321° (NW) 2,343 8.5 51.6°
Maximum altitude 13:27:27 82° 236° (SW) 857 7.5 51.0°
Drops below altitude 10° 13:33:26 10° 149° (SSE) 2,571 9.0 50.4°
Sets 13:36:02 0° 149° (SSE) 3,551 9.6 50.2°
